Southern Illinois Airport
KMDH : now visible

Airfield :











YOU CAN JOIN US ON...

 
LOGIN :

Register | Disclaimer

   EN    FR    IT 

 









Legend :    VFR   Marginal VFR   IFR   Intensive IFR   Very Intensive IFR
Visi :
Ceiling :
>= 8 km
>= 3000ft
5 to 8 km
1000 to 3000 ft
1500m to 5 km
500 to 1000 ft
800 to 1500m
200 to 500 ft
< 800m
< 200 ft
Symbols :   Thunderstorms  Fog  Heavy snow  Heavy precipitations  Wind > 20 kt






- Airport Elevation : 411 ft
- IATA code : MDH


KMDH - Southern Illinois

CURRENT METAR :
  • 241152Z AUTO 33010KT 10SM FEW021 04/00 A2997 RMK AO2 SLP149 T00390000 10100 20039 53033

EXPIRED METARs :
  • 241052Z AUTO 33009KT 10SM FEW065 04/00 A2993 RMK AO2 SLP136 T00440000
  • 240952Z AUTO 34013G20KT 10SM CLR 06/01 A2990 RMK AO2 SLP124 T00560006
  • 240852Z AUTO 35010KT 10SM SCT090 07/01 A2987 RMK AO2 SLP115 T00720011 51020
  • 240752Z AUTO 34009KT 10SM SCT075 SCT095 08/00 A2985 RMK AO2 SLP108 T00830000

TAF N/A
KZKC FIR / North America



MET'MAP, your aeronautical weather chart ! - Copyright ORBIFLY December 2007 - Disclaimer

ORBIFLY MET'MAP TEAM :

Programming & Development : Alexandra Zaïnal
Original concept : Baudouin d'Aumeries
Technical & hardware support : Manuel Goepfert
Assistance : Marc-Olivier Méhu




SOURCES & CREDITS :

   NOAA       Earth
Advisory